Change the Weather History Date:

Tuesday, October 22, 2013

  Actual Average (KAVL) Record (KAVL)
Temperature  
Mean Temperature 59 °F 54 °F  
Max Temperature 68 °F 67 °F 82 °F (1931)
Min Temperature 50 °F 43 °F 23 °F (1952)
Degree Days  
Heating Degree Days 6 11  
Month to date heating degree days 169  
Since 1 July heating degree days 226  
Cooling Degree Days 0 0  
Month to date cooling degree days 7  
Year to date cooling degree days 859  
Growing Degree Days 9 (Base 50)    
Moisture  
Dew Point 52 °F    
Average Humidity 84    
Maximum Humidity 100    
Minimum Humidity 58    
Precipitation  
Precipitation 0.00 in 0.09 in 1.52 in (1990)
Month to date precipitation 2.09  
Year to date precipitation 37.51  
Sea Level Pressure  
Sea Level Pressure 29.93 in    
Wind  
Wind Speed 2 mph (South)    
Max Wind Speed 10 mph    
Max Gust Speed -    
Visibility 8 miles    
Events Rain    
T = Trace of Precipitation, MM = Missing Value Source: NWS Daily Summary

Daily Weather History Graph

Daily Weather History Graph

Search for Another Location

Airport or City:

Trip Planner

Search our weather history database for the weather conditions in past years. The results will help you decide how hot, cold, wet, or windy it might be!

Date:

Astronomy

Oct. 22, 2013 Rise Set
Actual Time 7:40 AM EDT 6:43 PM EDT
Civil Twilight 7:14 AM EDT 7:09 PM EDT
Nautical Twilight 6:44 AM EDT 7:38 PM EDT
Astronomical Twilight 6:15 AM EDT 8:08 PM EDT
Moon 9:28 PM EDT (10/22) 11:02 AM EDT (10/22)
Length of Visible Light 11h 54m
Length of Day
11h 03m
Waning Gibbous, 87% of the Moon is Illuminated
Oct 22
Waning Gibbous
Oct 26
Last Quarter
Nov 3
New
Nov 10
First Quarter
Nov 17
Full

Hourly Weather History & Observations

Time (EDT) Temp. Dew Point Humidity Pressure Visibility Wind Dir Wind Speed Gust Speed Precip Events Conditions
12:15 AM 52.2 °F 50.9 °F 95% 30.02 in 10.0 mi Calm Calm - N/A   Clear
12:35 AM 50.9 °F 50.2 °F 97% 30.02 in 7.0 mi Calm Calm - N/A   Mostly Cloudy
12:55 AM 51.8 °F 50.9 °F 97% 30.02 in 7.0 mi Calm Calm - N/A   Scattered Clouds
1:15 AM 52.0 °F 50.9 °F 96% 30.03 in 10.0 mi Calm Calm - N/A   Clear
1:35 AM 52.0 °F 51.1 °F 97% 30.03 in 7.0 mi Calm Calm - N/A   Clear
1:55 AM 51.4 °F 50.4 °F 96% 30.03 in 7.0 mi Calm Calm - N/A   Clear
2:15 AM 52.2 °F 51.1 °F 96% 30.03 in 10.0 mi Calm Calm - N/A   Scattered Clouds
2:35 AM 53.2 °F 51.6 °F 94% 30.03 in 10.0 mi Calm Calm - N/A   Clear
2:55 AM 52.3 °F 51.1 °F 95% 30.02 in 10.0 mi Calm Calm - N/A   Clear
3:15 AM 52.2 °F 51.3 °F 97% 30.01 in 7.0 mi Calm Calm - N/A   Scattered Clouds
3:35 AM 51.4 °F 50.9 °F 98% 30.00 in 7.0 mi Calm Calm - N/A   Scattered Clouds
3:55 AM 52.2 °F 51.3 °F 97% 30.00 in 7.0 mi Calm Calm - N/A   Clear
4:15 AM 52.0 °F 51.1 °F 97% 30.00 in 7.0 mi Calm Calm - N/A   Clear
4:35 AM 51.8 °F 51.3 °F 98% 29.99 in 5.0 mi Calm Calm - N/A Rain Light Rain
4:55 AM 52.7 °F 52.0 °F 97% 29.98 in 7.0 mi Calm Calm - N/A   Clear
5:15 AM 52.7 °F 52.0 °F 97% 29.98 in 7.0 mi North 3.5 mph - N/A   Mostly Cloudy
5:35 AM 52.9 °F 52.0 °F 97% 29.98 in 7.0 mi Calm Calm - N/A   Overcast
5:55 AM 52.3 °F 51.8 °F 98% 29.99 in 4.0 mi NNW 4.6 mph - N/A   Overcast
6:15 AM 52.7 °F 52.0 °F 97% 29.98 in 5.0 mi North 4.6 mph - N/A Rain Light Rain
6:35 AM 52.3 °F 51.8 °F 98% 29.99 in 4.0 mi SSW 4.6 mph - N/A   Light Drizzle
6:55 AM 52.5 °F 52.0 °F 98% 29.99 in 4.0 mi North 3.5 mph - N/A Rain Light Rain
7:15 AM 52.5 °F 52.2 °F 99% 29.98 in 3.0 mi SSW 10.4 mph - N/A   Light Drizzle
7:35 AM 52.0 °F 51.8 °F 99% 29.98 in 2.0 mi South 6.9 mph - N/A Rain Light Rain
7:55 AM 52.2 °F 52.2 °F 100% 29.98 in 2.5 mi Calm Calm - N/A Rain Light Rain
8:15 AM 52.3 °F 52.2 °F 99% 29.99 in 3.0 mi SSW 9.2 mph - N/A Rain Light Rain
8:35 AM 52.7 °F 52.7 °F 100% 29.99 in 3.0 mi Calm Calm - N/A   Overcast
8:55 AM 53.6 °F 53.1 °F 98% 29.98 in 5.0 mi Calm Calm - N/A   Overcast
9:15 AM 53.8 °F 53.1 °F 97% 29.99 in 4.0 mi Calm Calm - N/A   Mostly Cloudy
9:35 AM 54.1 °F 53.2 °F 97% 29.99 in 5.0 mi Calm Calm - N/A   Scattered Clouds
9:55 AM 55.0 °F 54.0 °F 96% 29.99 in 5.0 mi Calm Calm - N/A   Clear
10:15 AM 57.0 °F 54.5 °F 91% 29.99 in 7.0 mi Calm Calm - N/A   Clear
10:35 AM 58.5 °F 53.8 °F 84% 29.98 in 10.0 mi Calm Calm - N/A   Scattered Clouds
10:55 AM 59.0 °F 54.7 °F 86% 29.97 in 10.0 mi Calm Calm - N/A   Mostly Cloudy
11:15 AM 59.7 °F 54.5 °F 83% 29.97 in 10.0 mi SW 3.5 mph - N/A   Overcast
11:35 AM 60.3 °F 54.1 °F 80% 29.96 in 10.0 mi Calm Calm - N/A   Overcast
11:55 AM 60.8 °F 54.7 °F 80% 29.95 in 10.0 mi Calm Calm - N/A   Overcast
12:15 PM 62.1 °F 54.7 °F 77% 29.94 in 10.0 mi Calm Calm - N/A   Mostly Cloudy
12:35 PM 62.4 °F 55.0 °F 77% 29.94 in 10.0 mi Calm Calm - N/A   Overcast
12:55 PM 63.0 °F 54.3 °F 73% 29.93 in 10.0 mi Calm Calm - N/A   Overcast
1:15 PM 64.0 °F 54.5 °F 71% 29.92 in 10.0 mi South 4.6 mph - N/A   Overcast
1:35 PM 65.1 °F 54.9 °F 69% 29.91 in 10.0 mi Calm Calm - N/A   Overcast
1:55 PM 66.0 °F 53.2 °F 63% 29.89 in 10.0 mi Calm Calm - N/A   Overcast
2:15 PM 65.8 °F 52.7 °F 62% 29.89 in 10.0 mi South 3.5 mph - N/A   Overcast
2:35 PM 66.4 °F 52.2 °F 60% 29.88 in 10.0 mi South 8.1 mph - N/A   Overcast
2:55 PM 66.6 °F 52.5 °F 61% 29.87 in 10.0 mi SSE 6.9 mph - N/A   Overcast
3:15 PM 66.4 °F 51.3 °F 58% 29.87 in 10.0 mi South 3.5 mph - N/A   Mostly Cloudy
3:35 PM 66.6 °F 53.6 °F 63% 29.87 in 10.0 mi South 4.6 mph - N/A   Mostly Cloudy
3:55 PM 68.4 °F 54.0 °F 60% 29.86 in 10.0 mi South 6.9 mph - N/A   Scattered Clouds
4:15 PM 67.6 °F 54.0 °F 61% 29.86 in 10.0 mi SSE 9.2 mph - N/A   Scattered Clouds
4:35 PM 66.6 °F 54.0 °F 64% 29.85 in 10.0 mi SSE 8.1 mph - N/A   Scattered Clouds
4:55 PM 67.1 °F 54.0 °F 63% 29.85 in 10.0 mi SSE 6.9 mph - N/A   Scattered Clouds
5:15 PM 66.4 °F 52.5 °F 61% 29.85 in 10.0 mi South 5.8 mph - N/A   Clear
5:35 PM 65.5 °F 52.0 °F 62% 29.85 in 10.0 mi South 4.6 mph - N/A   Scattered Clouds
5:55 PM 63.7 °F 52.5 °F 67% 29.85 in 10.0 mi SSE 4.6 mph - N/A   Mostly Cloudy
6:15 PM 62.8 °F 52.7 °F 70% 29.84 in 10.0 mi SSE 4.6 mph - N/A   Mostly Cloudy
6:35 PM 62.1 °F 52.7 °F 71% 29.85 in 10.0 mi Calm Calm - N/A   Scattered Clouds
6:55 PM 61.7 °F 52.3 °F 71% 29.85 in 10.0 mi Calm Calm - N/A   Mostly Cloudy
7:15 PM 60.6 °F 52.5 °F 75% 29.85 in 10.0 mi South 5.8 mph - N/A   Scattered Clouds
7:35 PM 60.6 °F 52.0 °F 73% 29.85 in 10.0 mi SE 4.6 mph - N/A   Scattered Clouds
7:55 PM 59.7 °F 51.1 °F 73% 29.85 in 10.0 mi SE 3.5 mph - N/A   Mostly Cloudy
8:15 PM 59.9 °F 50.0 °F 70% 29.85 in 10.0 mi SE 3.5 mph - N/A   Overcast
8:35 PM 58.8 °F 50.9 °F 75% 29.85 in 10.0 mi Calm Calm - N/A   Overcast
8:55 PM 59.0 °F 50.9 °F 74% 29.85 in 10.0 mi Calm Calm - N/A   Overcast
9:15 PM 58.1 °F 51.1 °F 77% 29.85 in 10.0 mi SE 3.5 mph - N/A   Overcast
9:35 PM 56.8 °F 50.9 °F 80% 29.84 in 10.0 mi Calm Calm - N/A   Mostly Cloudy
9:55 PM 55.0 °F 51.6 °F 88% 29.84 in 10.0 mi Calm Calm - N/A   Mostly Cloudy
10:35 PM 55.8 °F 52.7 °F 89% 29.83 in 10.0 mi Calm Calm - N/A   Overcast
11:15 PM 54.5 °F 52.2 °F 92% 29.83 in 10.0 mi Calm Calm - N/A   Overcast
11:35 PM 53.6 °F 52.3 °F 95% 29.83 in 10.0 mi Calm Calm - N/A   Overcast
11:55 PM 52.9 °F 52.0 °F 97% 29.83 in 10.0 mi Calm Calm - N/A   Mostly Cloudy